Location: Marcé
(47.5801°N, 0.3280°W)
Time: 16:46:11
(UTC+01:00)

SR - Pass Details

Date: 30 November 2021
Orbit: 582 x 872 km, 66.7° (Epoch: 22 January)

Event Time Altitude Azimuth Distance (km) Brightness Sun altitude
Rises 03:57:41 0° 277° (W) 2,901 - -44.5°
Reaches altitude 10° 04:01:35 10° 311° (NW) 1,950 - -43.8°
Maximum altitude 04:03:04 12° 332° (NNW) 1,840 - -43.6°
Drops below altitude 10° 04:04:33 10° 352° (N) 1,927 - -43.4°
Sets 04:08:20 0° 26° (NNE) 2,815 - -42.8°
